Regional Weather Roundup
Issued by NWS

Home | Current Version | Previous Version | Text Only | Print | Product List | Glossary Off
Versions: 1 2 3 4 5 6 7 8 9 10 11 12 13 14 15 16 17 18 19 20 21 22 23 24 25 26 27 28 29 30 31 32 33 34 35 36 37 38 39 40 41 42 43 44 45 46 47 48 49 50

000
ASUS45 KBOI 291310
RWRID
WEATHER ROUNDUP FOR IDAHO
NATIONAL WEATHER SERVICE BOISE ID
700 AM MDT TUE JUL 29 2014

NOTE: "FAIR" INDICATES FEW OR NO CLOUDS BELOW 12000 FEET
WITH NO SIGNIFICANT WEATHER AND/OR OBSTRUCTIONS TO VISIBILITY

IDZ012-014-291400-
SOUTHWEST IDAHO


CITY           SKY/WX    TMP DP  RH WIND       PRES   REMARKS
BOISE          MOCLDY    74  51  44 CALM      30.09R
CALDWELL       MOCLDY    66  48  52 SE9       30.10R
MOUNTAIN HOME  PTCLDY    71  53  54 CALM      30.11R
$$

IDZ016-017-291400-
SOUTHCENTRAL IDAHO


CITY           SKY/WX    TMP DP  RH WIND       PRES   REMARKS
BURLEY         CLEAR     62  56  80 E5        30.17S
JEROME         PTCLDY    64  56  75 E9        30.17S
TWIN FALLS     PTCLDY    63  55  75 SE7       30.17S
$$

IDZ019>023-291400-
SOUTHEAST IDAHO


CITY           SKY/WX    TMP DP  RH WIND       PRES   REMARKS
IDAHO FALLS    CLOUDY    63  58  83 NE3       30.22R
POCATELLO      MOCLDY    63  61  93 NW3       30.22R
REXBURG        CLOUDY    64  53  67 NE7       30.23S
$$

IDZ006-010-011-018-031-032-291400-
CENTRAL IDAHO MOUNTAINS


CITY           SKY/WX    TMP DP  RH WIND       PRES   REMARKS
MCCALL         CLOUDY    64  47  53 NE3       30.24R
HAILEY         PTCLDY    59  46  63 MISG      30.28S
STANLEY          N/A     41  40  96 CALM      30.39S
SALMON         PTCLDY    54  46  76 CALM      30.23S
CHALLIS        CLEAR     56  44  64 N3        30.28S
$$

IDZ002-004-006-007-026-291400-
NORTHERN IDAHO


CITY           SKY/WX    TMP DP  RH WIND       PRES   REMARKS
LEWISTON       CLEAR     70  48  45 E6        30.04R
LOWELL           N/A     60  55  83 N3        30.12R
COEUR D`ALENE  CLEAR     63  52  67 SE7       30.09R
MULLAN PASS    CLEAR     68  39  34 SE7       30.33S
$$


USA.gov is the U.S. government's official web portal to all federal, state and local government web resources and services.